Regional Weather Roundup
Issued by NWS Sioux Falls, SD

Home | Current Version | Previous Version | Text Only | Print | Product List | Glossary On
Versions: 1 2 3 4 5 6 7 8 9 10 11 12 13 14 15 16 17 18 19 20 21 22 23 24 25 26 27 28 29 30 31 32 33 34 35 36 37 38 39 40 41 42 43 44 45 46 47 48 49 50
000
ASUS43 KFSD 190602
RWRFSD

WEATHER ROUNDUP FOR SE SOUTH DAKOTA/SW MINNESOTA/NW IOWA
NATIONAL WEATHER SERVICE SIOUX FALLS SD
100 AM CDT THU OCT 19 2017

NOTE: "FAIR" INDICATES FEW OR NO CLOUDS BELOW 12,000 FEET WITH NO
SIGNIFICANT WEATHER AND OR OBSTRUCTIONS TO VISIBILITY.


SDZ038>040-050-052>070-190700-
SOUTHEAST SOUTH DAKOTA

CITY           SKY/WX    TMP DP  RH WIND       PRES   REMARKS
BROOKINGS      CLOUDY    41  33  73 SE6       30.05F
CHAMBERLAIN    CLOUDY    43  36  77 SE3       30.02F
6HR MIN TEMP:  39; 6HR MAX TEMP:  57;

HURON          CLOUDY    43  32  65 S6        30.02F
6HR MIN TEMP:  37; 6HR MAX TEMP:  54;

MADISON        FAIR      39  32  75 CALM      30.05F
MITCHELL       CLOUDY    46  35  65 S5        30.04F
6HR MIN TEMP:  41; 6HR MAX TEMP:  62;

SIOUX FALLS    CLOUDY    41  38  89 CALM      30.06S
6HR MIN TEMP:  41; 6HR MAX TEMP:  60;

WINNER         FAIR      52  34  50 SE12      30.00F
YANKTON        CLOUDY    45  35  68 CALM      30.06S
$$

MNZ071-072-080-081-089-090-097-098-190700-
SOUTHWEST MINNESOTA

CITY           SKY/WX    TMP DP  RH WIND       PRES   REMARKS
FAIRMONT       CLOUDY    46  31  55 CALM      30.06R
JACKSON        CLOUDY    43  32  65 NW3       30.07S
LUVERNE        CLOUDY    39  32  75 CALM      30.07S
MARSHALL       CLOUDY    47  31  53 W9        30.04F
6HR MIN TEMP:  42; 6HR MAX TEMP:  54;

MONTEVIDEO     CLOUDY    43  27  52 CALM      30.03S
PIPESTONE      CLOUDY    43  28  56 CALM      30.05F
REDWOOD FALLS  CLOUDY    45  30  55 CALM      30.04S
TRACY          CLOUDY    49  32  52 W8        30.04F
WORTHINGTON    CLOUDY    41  34  76 CALM      30.08R
$$

IAZ001>003-012>014-020>022-031-032-NEZ013-014-SDZ071-190700-
NORTHWEST IOWA

CITY           SKY/WX    TMP DP  RH WIND       PRES   REMARKS
CHEROKEE       CLEAR     41  41  98 CALM      30.06S
DENISON        CLEAR     43  43 100 CALM      30.06F
ESTHERVILLE    CLOUDY    41  36  82 NW5       30.05S
LE MARS        CLEAR     43  37  81 CALM      30.06S
ORANGE CITY    CLEAR     54  34  47 E5        30.06S
SHELDON        CLOUDY    37  36  93 CALM      30.04F
SIOUX CITY     CLOUDY    45  41  86 NW3       30.05S
6HR MIN TEMP:  43; 6HR MAX TEMP:  61;

SPENCER        CLOUDY    39  36  89 W6        30.06S
6HR MIN TEMP:  38; 6HR MAX TEMP:  61;

STORM LAKE     CLEAR     50  34  53 NE3       30.05S
$$

ABBREVIATIONS USED IN REMARKS
   TC - TEMPERATURE IN CELSIUS
  WCI - WIND CHILL INDEX
   HX - HEAT INDEX
  VSB - VISIBILITY




USA.gov is the U.S. government's official web portal to all federal, state and local government web resources and services.